Hourly Weather Kozly

Today, 1 November, Sunday

Time Temperature Precipitation Wind Pressure Humidity
00:00 +5°C° 0.3 mm 7 mps 743 mmHg 89%
01:00 +5°C° 0.3 mm 7 mps 743 mmHg 90%
02:00 +5°C° 0.3 mm 8 mps 743 mmHg 90%
03:00 +5°C° 1.2 mm 8 mps 743 mmHg 91%
04:00 +6°C° 1.2 mm 8 mps 743 mmHg 91%
05:00 +6°C° 1.2 mm 8 mps 742 mmHg 91%
06:00 +6°C° 1.5 mm 8 mps 742 mmHg 92%
07:00 +6°C° 1.5 mm 8 mps 742 mmHg 92%
08:00 +6°C° 1.5 mm 8 mps 742 mmHg 92%
09:00 +6°C° 0.3 mm 7 mps 742 mmHg 91%
10:00 +6°C° 0.3 mm 7 mps 742 mmHg 91%
11:00 +8°C° 0.3 mm 6 mps 742 mmHg 90%
12:00 +8°C° 0.2 mm 6 mps 742 mmHg 91%
13:00 +8°C° 0.2 mm 6 mps 742 mmHg 91%
14:00 +8°C° 0.2 mm 5 mps 742 mmHg 92%
15:00 +8°C° 0.2 mm 5 mps 742 mmHg 92%
16:00 +8°C° 0.2 mm 5 mps 743 mmHg 93%
17:00 +8°C° 0.2 mm 5 mps 743 mmHg 94%
18:00 +8°C° 0.4 mm 4 mps 743 mmHg 93%
19:00 +8°C° 0.4 mm 4 mps 743 mmHg 92%
20:00 +8°C° 0.4 mm 4 mps 743 mmHg 91%
21:00 +8°C° 0.1 mm 4 mps 743 mmHg 90%
22:00 +9°C° 0.1 mm 3 mps 743 mmHg 89%
23:00 +9°C° 0.1 mm 3 mps 743 mmHg 88%

Tomorrow, 2 November, Monday

Time Temperature Precipitation Wind Pressure Humidity
00:00 +8°C° 0 mm 3 mps 743 mmHg 89%
01:00 +7°C° 0 mm 3 mps 743 mmHg 91%
02:00 +7°C° 0 mm 3 mps 743 mmHg 92%
03:00 +7°C° 0 mm 3 mps 743 mmHg 93%
04:00 +5°C° 0 mm 3 mps 743 mmHg 94%
05:00 +5°C° 0 mm 3 mps 743 mmHg 95%
06:00 +6°C° 0.7 mm 4 mps 743 mmHg 95%
07:00 +6°C° 0.7 mm 4 mps 743 mmHg 95%
08:00 +6°C° 0.7 mm 4 mps 743 mmHg 95%
09:00 +7°C° 0.5 mm 4 mps 743 mmHg 95%
10:00 +7°C° 0.5 mm 4 mps 743 mmHg 94%
11:00 +7°C° 0.5 mm 4 mps 743 mmHg 93%
12:00 +7°C° 0.3 mm 4 mps 743 mmHg 93%
13:00 +7°C° 0.3 mm 4 mps 742 mmHg 92%
14:00 +8°C° 0.3 mm 3 mps 742 mmHg 91%
15:00 +8°C° 0.1 mm 3 mps 742 mmHg 92%
16:00 +8°C° 0.1 mm 3 mps 743 mmHg 92%
17:00 +8°C° 0.1 mm 3 mps 743 mmHg 93%
18:00 +8°C° 0 mm 3 mps 743 mmHg 93%
19:00 +8°C° 0 mm 3 mps 743 mmHg 93%
20:00 +8°C° 0 mm 3 mps 744 mmHg 93%
21:00 +7°C° 0 mm 3 mps 744 mmHg 94%
22:00 +7°C° 0 mm 3 mps 744 mmHg 94%
23:00 +7°C° 0 mm 3 mps 744 mmHg 95%

Day after tomorrow, 3 November, Tuesday

Time Temperature Precipitation Wind Pressure Humidity
00:00 +7°C° 0 mm 3 mps 744 mmHg 95%
01:00 +7°C° 0 mm 3 mps 744 mmHg 95%
02:00 +8°C° 0 mm 3 mps 745 mmHg 95%
03:00 +8°C° 0.1 mm 3 mps 745 mmHg 95%
04:00 +7°C° 0.1 mm 3 mps 745 mmHg 95%
05:00 +7°C° 0.1 mm 3 mps 745 mmHg 96%
06:00 +8°C° 0 mm 3 mps 745 mmHg 95%
07:00 +8°C° 0 mm 3 mps 746 mmHg 94%
08:00 +8°C° 0 mm 3 mps 746 mmHg 93%
09:00 +8°C° 0 mm 4 mps 746 mmHg 89%
10:00 +8°C° 0 mm 4 mps 746 mmHg 86%
11:00 +10°C° 0 mm 4 mps 747 mmHg 82%
12:00 +10°C° 0 mm 3 mps 747 mmHg 82%
13:00 +10°C° 0 mm 3 mps 747 mmHg 81%
14:00 +10°C° 0 mm 3 mps 747 mmHg 81%
15:00 +10°C° 0 mm 2 mps 747 mmHg 82%
16:00 +9°C° 0 mm 2 mps 748 mmHg 84%
17:00 +9°C° 0 mm 2 mps 748 mmHg 85%
18:00 +9°C° 0 mm 2 mps 748 mmHg 87%
19:00 +9°C° 0 mm 2 mps 748 mmHg 88%
20:00 +8°C° 0 mm 2 mps 749 mmHg 90%
21:00 +8°C° 0 mm 2 mps 749 mmHg 90%
22:00 +9°C° 0 mm 1 mps 749 mmHg 91%
23:00 +9°C° 0 mm 1 mps 749 mmHg 91%

4 November, Wednesday

Time Temperature Precipitation Wind Pressure Humidity
00:00 +9°C° 0 mm 1 mps 749 mmHg 91%
01:00 +9°C° 0 mm 1 mps 749 mmHg 91%
02:00 +9°C° 0 mm 1 mps 750 mmHg 90%
03:00 +9°C° 0 mm 1 mps 750 mmHg 90%
04:00 +9°C° 0 mm 1 mps 750 mmHg 90%
05:00 +9°C° 0 mm 1 mps 750 mmHg 90%
06:00 +9°C° 0 mm 1 mps 750 mmHg 89%
07:00 +9°C° 0 mm 1 mps 751 mmHg 89%
08:00 +9°C° 0 mm 1 mps 751 mmHg 88%
09:00 +10°C° 0 mm 1 mps 751 mmHg 85%
10:00 +10°C° 0 mm 1 mps 751 mmHg 81%
11:00 +11°C° 0 mm 1 mps 751 mmHg 78%
12:00 +11°C° 0 mm 1 mps 752 mmHg 76%
13:00 +12°C° 0 mm 1 mps 752 mmHg 74%
14:00 +12°C° 0 mm 1 mps 752 mmHg 73%
15:00 +11°C° 0 mm 1 mps 752 mmHg 76%
16:00 +10°C° 0 mm 1 mps 752 mmHg 80%
17:00 +9°C° 0 mm 1 mps 752 mmHg 84%
18:00 +9°C° 0 mm 1 mps 752 mmHg 86%
19:00 +9°C° 0 mm 1 mps 752 mmHg 87%
20:00 +8°C° 0 mm 1 mps 753 mmHg 88%
21:00 +8°C° 0 mm 2 mps 753 mmHg 89%
22:00 +8°C° 0 mm 2 mps 753 mmHg 89%
23:00 +8°C° 0 mm 2 mps 753 mmHg 90%

5 November, Thursday

Time Temperature Precipitation Wind Pressure Humidity
00:00 +8°C° 0 mm 2 mps 753 mmHg 91%
01:00 +7°C° 0 mm 2 mps 753 mmHg 92%
02:00 +7°C° 0 mm 2 mps 753 mmHg 93%
03:00 +7°C° 0 mm 2 mps 753 mmHg 94%
04:00 +7°C° 0 mm 2 mps 753 mmHg 94%
05:00 +7°C° 0 mm 2 mps 753 mmHg 95%
06:00 +7°C° 0 mm 2 mps 753 mmHg 94%
07:00 +7°C° 0 mm 2 mps 754 mmHg 93%
08:00 +7°C° 0 mm 1 mps 754 mmHg 92%
09:00 +8°C° 0 mm 1 mps 754 mmHg 86%
10:00 +9°C° 0 mm 1 mps 754 mmHg 80%
11:00 +9°C° 0 mm 1 mps 753 mmHg 73%
12:00 +9°C° 0 mm 1 mps 753 mmHg 71%
13:00 +10°C° 0 mm 1 mps 753 mmHg 69%
14:00 +10°C° 0 mm 1 mps 753 mmHg 67%
15:00 +8°C° 0 mm 2 mps 752 mmHg 70%
16:00 +8°C° 0 mm 2 mps 752 mmHg 74%
17:00 +7°C° 0 mm 2 mps 752 mmHg 77%
18:00 +7°C° 0.1 mm 2 mps 752 mmHg 79%
19:00 +7°C° 0.1 mm 2 mps 752 mmHg 81%
20:00 +7°C° 0.1 mm 2 mps 752 mmHg 83%
21:00 +6°C° 0.4 mm 2 mps 752 mmHg 85%
22:00 +6°C° 0.4 mm 2 mps 752 mmHg 87%
23:00 +6°C° 0.4 mm 2 mps 752 mmHg 88%

6 November, Friday

Time Temperature Precipitation Wind Pressure Humidity
00:00 +6°C° 0.5 mm 2 mps 752 mmHg 89%
01:00 +5°C° 0.5 mm 2 mps 752 mmHg 90%
02:00 +5°C° 0.5 mm 2 mps 752 mmHg 91%
03:00 +5°C° 0.1 mm 2 mps 752 mmHg 90%
04:00 +5°C° 0.1 mm 2 mps 752 mmHg 89%
05:00 +5°C° 0.1 mm 2 mps 752 mmHg 88%
06:00 +5°C° 0 mm 2 mps 752 mmHg 88%
07:00 +4°C° 0 mm 2 mps 752 mmHg 89%
08:00 +4°C° 0 mm 2 mps 753 mmHg 89%
09:00 +5°C° 0 mm 2 mps 753 mmHg 83%
10:00 +6°C° 0 mm 2 mps 753 mmHg 78%
11:00 +7°C° 0 mm 2 mps 753 mmHg 72%
12:00 +7°C° 0 mm 2 mps 754 mmHg 71%
13:00 +8°C° 0 mm 2 mps 754 mmHg 70%
14:00 +8°C° 0 mm 2 mps 754 mmHg 69%
15:00 +7°C° 0 mm 2 mps 754 mmHg 74%
16:00 +6°C° 0 mm 2 mps 754 mmHg 79%
17:00 +6°C° 0 mm 1 mps 754 mmHg 83%
18:00 +6°C° 0 mm 1 mps 755 mmHg 85%
19:00 +4°C° 0 mm 2 mps 755 mmHg 87%
20:00 +4°C° 0 mm 2 mps 755 mmHg 89%
21:00 +4°C° 0 mm 2 mps 755 mmHg 90%
22:00 +3°C° 0 mm 2 mps 756 mmHg 91%
23:00 +3°C° 0 mm 2 mps 756 mmHg 93%
Show more